This is the latest recevied weather packets stored in our database for station/object KG7KID-7. If no packets are shown the sender has not sent any weather packets the latest 10 day(s).
| Time | Temp. | Humidity | Pressure | Rain* | Wind** | Luminosity | Snow |
|---|---|---|---|---|---|---|---|
| 1787786480 | 102° F | 14% | 734.1 mmHg | 0 in | - | - | - |
| 1787778358 | 106° F | 13% | 734.6 mmHg | 0 in | - | - | - |
| 1787777147 | 108° F | 12% | 734.7 mmHg | 0 in | - | - | - |
| 1787775637 | 107° F | 13% | 734.9 mmHg | 0 in | - | - | - |
| 1787775218 | 106° F | 14% | 735 mmHg | 0 in | - | - | - |
| 1787775036 | 106° F | 14% | 735 mmHg | 0 in | - | - | - |
| 1787774737 | 106° F | 13% | 735.1 mmHg | 0 in | - | - | - |
| 1787774437 | 105° F | 14% | 735.1 mmHg | 0 in | - | - | - |
| 1787774136 | 105° F | 13% | 735.2 mmHg | 0 in | - | - | - |
| 1787773837 | 105° F | 13% | 735.2 mmHg | 0 in | - | - | - |
| 1787773536 | 105° F | 13% | 735.3 mmHg | 0 in | - | - | - |
| 1787773236 | 105° F | 13% | 735.4 mmHg | 0 in | - | - | - |
| 1787772937 | 105° F | 14% | 735.4 mmHg | 0 in | - | - | - |
| 1787772636 | 104° F | 14% | 735.5 mmHg | 0 in | - | - | - |
| 1787772337 | 104° F | 15% | 734.9 mmHg | 0 in | - | - | - |
| 1787769577 | 100° F | 18% | 735.6 mmHg | 0 in | - | - | - |
| 1787769277 | 99° F | 19% | 735.6 mmHg | 0 in | - | - | - |
| 1787768977 | 99° F | 19% | 735.7 mmHg | 0 in | - | - | - |
| 1787767444 | 97° F | 21% | 736 mmHg | 0 in | - | - | - |
| 1787767144 | 96° F | 21% | 735.9 mmHg | 0 in | - | - | - |
| 1787766545 | 96° F | 22% | 736 mmHg | 0 in | - | - | - |
| 1787765944 | 96° F | 21% | 736 mmHg | 0 in | - | - | - |
| 1787765644 | 96° F | 21% | 736 mmHg | 0 in | - | - | - |
| 1787764745 | 95° F | 22% | 736.1 mmHg | 0 in | - | - | - |
| 1787764146 | 93° F | 24% | 736.2 mmHg | 0 in | - | - | - |
* Rain latest hour (hover to see other rain measurements)
** Current wind speed in m/s (hover to see current wind gust speed)